SAA281 YPPH-FAOR

Flight info

Callsign SAA281
Flight time N/A
Altitude 30000
Route OPEGA DCT 33S108E/N0491F320 35S101E 36S095E 37S088E 38S082E DCT SUNKI/N0488F340 UT451 RAXES DCT 35S051E/N0486F360 33S045E 31S040E DCT EGSOX Q21 ALENI UZ9 UNPOM UNPOM1B
Aircraft A346/H-SDE2E3FGHIJ3J4J5M1RWXY/LB1D1

Departure

Time N/A
Airport Perth International Airport (YPPH)

Arrival

Time 2026-05-07 19:39
Airport O.R. Tambo International Airport (FAOR)
Time Latitude Longitude Altitude Speed Heading
2026-05-07 17:47 -30.37256 38.65755 35886 ft 399 kts 301°
2026-05-07 17:47 -30.35917 38.62935 35894 ft 398 kts 302°
2026-05-07 17:48 -30.33248 38.57326 35880 ft 397 kts 302°
2026-05-07 17:48 -30.30578 38.51722 35883 ft 397 kts 302°
2026-05-07 17:49 -30.27893 38.46102 35869 ft 399 kts 301°
2026-05-07 17:49 -30.25221 38.40508 35879 ft 400 kts 301°
2026-05-07 17:50 -30.22525 38.34873 35878 ft 400 kts 301°
2026-05-07 17:50 -30.19824 38.29237 35878 ft 400 kts 301°
2026-05-07 17:51 -30.17123 38.23610 35881 ft 400 kts 302°
2026-05-07 17:51 -30.14418 38.17981 35911 ft 399 kts 302°
2026-05-07 17:52 -30.11728 38.12387 35889 ft 397 kts 302°
2026-05-07 17:52 -30.09035 38.06804 35885 ft 397 kts 302°
2026-05-07 17:53 -30.06341 38.01223 35874 ft 397 kts 302°
2026-05-07 17:53 -30.03666 37.95690 35858 ft 397 kts 302°
2026-05-07 17:54 -30.00964 37.90108 35873 ft 398 kts 302°
2026-05-07 17:54 -29.98265 37.84540 35887 ft 398 kts 302°
2026-05-07 17:55 -29.95559 37.78966 35885 ft 397 kts 302°
2026-05-07 17:55 -29.92850 37.73393 35886 ft 397 kts 302°
2026-05-07 17:56 -29.90145 37.67834 35851 ft 396 kts 302°
2026-05-07 17:56 -29.87434 37.62277 35892 ft 398 kts 302°
2026-05-07 17:57 -29.85177 37.57651 35878 ft 398 kts 302°
2026-05-07 17:57 -29.82020 37.51192 35892 ft 398 kts 302°
2026-05-07 17:58 -29.79299 37.45632 35903 ft 397 kts 302°
2026-05-07 17:58 -29.76587 37.40099 35871 ft 396 kts 302°
2026-05-07 17:59 -29.73870 37.34566 35886 ft 397 kts 302°
2026-05-07 17:59 -29.71142 37.29017 35890 ft 397 kts 302°
2026-05-07 18:00 -29.68416 37.23478 35906 ft 397 kts 302°
2026-05-07 18:00 -29.65707 37.17982 35902 ft 395 kts 302°
2026-05-07 18:01 -29.62991 37.12480 35894 ft 395 kts 302°
2026-05-07 18:01 -29.60261 37.06961 35883 ft 397 kts 302°
2026-05-07 18:02 -29.56159 36.98675 35932 ft 397 kts 302°
2026-05-07 18:03 -29.53427 36.93165 35905 ft 395 kts 302°
2026-05-07 18:03 -29.50699 36.87674 35899 ft 395 kts 302°
2026-05-07 18:04 -29.47986 36.82220 35871 ft 396 kts 302°
2026-05-07 18:04 -29.45241 36.76710 35891 ft 397 kts 302°
2026-05-07 18:05 -29.42499 36.71211 35911 ft 395 kts 302°
2026-05-07 18:05 -29.39761 36.65727 35900 ft 394 kts 302°
2026-05-07 18:06 -29.37027 36.60259 35898 ft 394 kts 302°
2026-05-07 18:06 -29.34311 36.54834 35873 ft 395 kts 302°
2026-05-07 18:07 -29.31565 36.49360 35925 ft 396 kts 302°
2026-05-07 18:07 -29.28823 36.43899 35902 ft 394 kts 302°
2026-05-07 18:08 -29.26087 36.38454 35900 ft 394 kts 302°
2026-05-07 18:08 -29.23348 36.33014 35905 ft 394 kts 302°
2026-05-07 18:09 -29.20607 36.27577 35891 ft 394 kts 302°
2026-05-07 18:09 -29.17859 36.22135 35907 ft 394 kts 302°
2026-05-07 18:10 -29.15114 36.16703 35902 ft 393 kts 302°
2026-05-07 18:10 -29.12386 36.11313 35904 ft 393 kts 302°
2026-05-07 18:11 -29.09642 36.05898 35902 ft 393 kts 302°
2026-05-07 18:11 -29.07352 36.01384 35900 ft 393 kts 302°
2026-05-07 18:12 -29.04603 35.95976 35883 ft 395 kts 302°
2026-05-07 18:12 -29.01838 35.90541 35901 ft 395 kts 302°
2026-05-07 18:13 -28.99070 35.85106 35902 ft 395 kts 302°
2026-05-07 18:13 -28.96299 35.79671 35905 ft 395 kts 302°
2026-05-07 18:14 -28.93525 35.74240 35928 ft 395 kts 302°
2026-05-07 18:14 -28.90755 35.68823 35885 ft 394 kts 302°
2026-05-07 18:15 -28.87997 35.63437 35903 ft 395 kts 302°
2026-05-07 18:15 -28.85219 35.58020 35905 ft 395 kts 302°
2026-05-07 18:16 -28.82443 35.52612 35903 ft 395 kts 302°
2026-05-07 18:16 -28.79661 35.47200 35915 ft 394 kts 302°
2026-05-07 18:17 -28.76885 35.41806 35905 ft 394 kts 302°
2026-05-07 18:17 -28.74118 35.36438 35900 ft 394 kts 302°
2026-05-07 18:18 -28.71340 35.31055 35908 ft 394 kts 302°
2026-05-07 18:18 -28.68558 35.25671 35900 ft 394 kts 302°
2026-05-07 18:19 -28.65774 35.20291 35908 ft 393 kts 302°
2026-05-07 18:19 -28.62990 35.14916 35902 ft 393 kts 302°
2026-05-07 18:20 -28.60204 35.09544 35883 ft 394 kts 302°
2026-05-07 18:20 -28.57428 35.04199 35897 ft 394 kts 302°
2026-05-07 18:21 -28.54638 34.98833 35925 ft 394 kts 302°
2026-05-07 18:21 -28.51844 34.93466 35905 ft 394 kts 302°
2026-05-07 18:22 -28.49047 34.88098 35898 ft 394 kts 302°
2026-05-07 18:22 -28.46248 34.82733 35897 ft 394 kts 302°
2026-05-07 18:23 -28.43451 34.77374 35880 ft 394 kts 302°
2026-05-07 18:23 -28.40641 34.72002 35909 ft 394 kts 302°
2026-05-07 18:24 -28.37823 34.66690 35903 ft 394 kts 303°
2026-05-07 18:24 -28.34928 34.61391 35896 ft 394 kts 303°
2026-05-07 18:25 -28.32034 34.56093 35896 ft 394 kts 303°
2026-05-07 18:25 -28.29776 34.50465 35875 ft 393 kts 291°
2026-05-07 18:26 -28.28204 34.44451 35900 ft 399 kts 290°
2026-05-07 18:26 -28.26638 34.38439 35896 ft 400 kts 290°
2026-05-07 18:27 -28.25057 34.32384 35892 ft 400 kts 290°
2026-05-07 18:27 -28.23473 34.26327 35892 ft 400 kts 290°
2026-05-07 18:28 -28.21885 34.20271 35910 ft 400 kts 290°
2026-05-07 18:28 -28.20290 34.14202 35895 ft 401 kts 290°
2026-05-07 18:29 -28.18691 34.08126 35890 ft 401 kts 290°
2026-05-07 18:29 -28.17090 34.02054 35879 ft 401 kts 290°
2026-05-07 18:30 -28.15494 33.96015 35886 ft 401 kts 290°
2026-05-07 18:30 -28.13888 33.89958 35899 ft 401 kts 290°
2026-05-07 18:31 -28.12281 33.83898 35891 ft 401 kts 290°
2026-05-07 18:31 -28.10672 33.77841 35887 ft 401 kts 290°
2026-05-07 18:32 -28.09057 33.71778 35887 ft 401 kts 290°
2026-05-07 18:32 -28.07437 33.65715 35910 ft 401 kts 290°
2026-05-07 18:33 -28.05818 33.59660 35847 ft 401 kts 290°
2026-05-07 18:33 -28.04198 33.53611 35885 ft 401 kts 290°
2026-05-07 18:34 -28.02576 33.47564 35887 ft 401 kts 290°
2026-05-07 18:34 -28.00963 33.41568 35884 ft 401 kts 290°
2026-05-07 18:35 -27.99336 33.35530 35884 ft 401 kts 290°
2026-05-07 18:35 -27.97705 33.29487 35884 ft 401 kts 290°
2026-05-07 18:36 -27.96071 33.23445 35880 ft 401 kts 290°
2026-05-07 18:36 -27.94433 33.17404 35880 ft 401 kts 290°
2026-05-07 18:37 -27.92790 33.11364 35881 ft 401 kts 290°
2026-05-07 18:37 -27.91150 33.05329 35882 ft 401 kts 290°
2026-05-07 18:38 -27.89506 32.99297 35872 ft 401 kts 290°
2026-05-07 18:38 -27.87868 32.93299 35880 ft 401 kts 290°
2026-05-07 18:39 -27.86217 32.87266 35885 ft 401 kts 290°
2026-05-07 18:39 -27.84562 32.81227 35876 ft 402 kts 290°
2026-05-07 18:40 -27.82902 32.75182 35875 ft 402 kts 290°
2026-05-07 18:40 -27.81240 32.69140 35875 ft 402 kts 290°
2026-05-07 18:41 -27.79574 32.63101 35863 ft 402 kts 290°
2026-05-07 18:41 -27.77901 32.57053 35879 ft 403 kts 290°
2026-05-07 18:42 -27.76230 32.51007 35874 ft 403 kts 290°
2026-05-07 18:42 -27.74563 32.44993 35868 ft 403 kts 290°
2026-05-07 18:43 -27.72882 32.38937 35878 ft 403 kts 290°
2026-05-07 18:43 -27.71198 32.32891 35908 ft 403 kts 289°
2026-05-07 18:44 -27.69516 32.26857 35894 ft 403 kts 289°
2026-05-07 18:44 -27.67828 32.20813 35843 ft 403 kts 289°
2026-05-07 18:45 -27.66150 32.14820 35891 ft 402 kts 289°
2026-05-07 18:45 -27.64463 32.08801 35886 ft 402 kts 289°
2026-05-07 18:46 -27.62767 32.02763 35899 ft 402 kts 289°
2026-05-07 18:46 -27.61074 31.96746 35900 ft 402 kts 289°
2026-05-07 18:47 -27.59378 31.90730 35898 ft 402 kts 289°
2026-05-07 18:47 -27.57692 31.84757 35901 ft 402 kts 289°
2026-05-07 18:48 -27.55990 31.78744 35942 ft 402 kts 289°
2026-05-07 18:48 -27.54287 31.72739 35893 ft 401 kts 289°
2026-05-07 18:49 -27.52586 31.66749 35902 ft 400 kts 289°
2026-05-07 18:49 -27.50885 31.60767 35908 ft 400 kts 289°
2026-05-07 18:50 -27.49180 31.54784 35910 ft 400 kts 289°
2026-05-07 18:50 -27.47485 31.48850 35937 ft 400 kts 289°
2026-05-07 18:51 -27.45767 31.42845 35925 ft 400 kts 289°
2026-05-07 18:51 -27.44070 31.36918 35935 ft 400 kts 289°
2026-05-07 18:52 -27.42357 31.30951 35940 ft 400 kts 289°
2026-05-07 18:52 -27.40642 31.24988 35954 ft 400 kts 289°
2026-05-07 18:53 -27.38918 31.19006 35953 ft 402 kts 289°
2026-05-07 18:53 -27.37186 31.13004 35970 ft 403 kts 289°
2026-05-07 18:54 -27.35452 31.07005 35975 ft 403 kts 289°
2026-05-07 18:54 -27.33714 31.01005 35978 ft 403 kts 289°
2026-05-07 18:55 -27.31985 30.95050 36018 ft 403 kts 289°
2026-05-07 18:55 -27.30240 30.89056 35997 ft 402 kts 289°
2026-05-07 18:56 -27.28499 30.83070 35990 ft 402 kts 289°
2026-05-07 18:56 -27.26754 30.77086 35962 ft 402 kts 289°
2026-05-07 18:57 -27.25008 30.71108 35995 ft 402 kts 289°
2026-05-07 18:57 -27.23246 30.65142 36004 ft 402 kts 291°
2026-05-07 18:58 -27.20540 30.59596 36030 ft 405 kts 301°
2026-05-07 18:58 -27.17501 30.54288 36021 ft 402 kts 301°
2026-05-07 18:59 -27.14985 30.49895 36039 ft 402 kts 301°
2026-05-07 18:59 -27.11951 30.44596 36045 ft 402 kts 301°
2026-05-07 19:00 -27.08918 30.39304 36063 ft 402 kts 301°
2026-05-07 19:00 -27.05887 30.34023 36067 ft 402 kts 301°
2026-05-07 19:01 -27.02854 30.28739 36068 ft 402 kts 301°
2026-05-07 19:01 -26.99840 30.23492 36079 ft 402 kts 301°
2026-05-07 19:02 -26.96804 30.18215 36086 ft 402 kts 301°
2026-05-07 19:02 -26.93764 30.12938 36094 ft 402 kts 301°
2026-05-07 19:03 -26.90716 30.07658 36059 ft 403 kts 300°
2026-05-07 19:03 -26.87669 30.02382 36104 ft 403 kts 300°
2026-05-07 19:04 -26.84624 29.97113 35893 ft 405 kts 300°
2026-05-07 19:04 -26.83094 29.94469 35657 ft 401 kts 300°
2026-05-07 19:04 -26.81577 29.91849 35423 ft 399 kts 300°
2026-05-07 19:04 -26.80072 29.89252 35178 ft 397 kts 300°
2026-05-07 19:05 -26.78570 29.86659 34869 ft 396 kts 300°
2026-05-07 19:05 -26.77068 29.84069 34453 ft 396 kts 300°
2026-05-07 19:05 -26.75581 29.81509 33913 ft 397 kts 300°
2026-05-07 19:05 -26.74069 29.78907 33192 ft 399 kts 300°
2026-05-07 19:06 -26.72551 29.76293 32511 ft 401 kts 300°
2026-05-07 19:06 -26.69500 29.71048 31190 ft 403 kts 300°
2026-05-07 19:06 -26.67965 29.68409 30531 ft 405 kts 300°
2026-05-07 19:07 -26.66423 29.65759 29785 ft 407 kts 300°
2026-05-07 19:07 -26.64869 29.63091 29027 ft 410 kts 300°
2026-05-07 19:07 -26.63313 29.60421 28298 ft 411 kts 300°
2026-05-07 19:07 -26.61754 29.57749 27764 ft 407 kts 300°
2026-05-07 19:08 -26.60214 29.55115 27345 ft 402 kts 300°
2026-05-07 19:08 -26.58690 29.52509 26863 ft 399 kts 300°
2026-05-07 19:08 -26.57173 29.49914 26357 ft 397 kts 300°
2026-05-07 19:08 -26.55666 29.47335 25907 ft 394 kts 300°
2026-05-07 19:09 -26.54188 29.44809 25473 ft 390 kts 300°
2026-05-07 19:09 -26.52704 29.42273 25021 ft 387 kts 300°
2026-05-07 19:09 -26.51230 29.39758 24640 ft 383 kts 300°
2026-05-07 19:09 -26.49774 29.37272 24249 ft 380 kts 300°
2026-05-07 19:10 -26.48332 29.34811 23844 ft 378 kts 300°
2026-05-07 19:10 -26.46895 29.32359 23375 ft 375 kts 300°
2026-05-07 19:10 -26.45469 29.29928 22932 ft 373 kts 300°
2026-05-07 19:10 -26.44051 29.27513 22506 ft 370 kts 300°
2026-05-07 19:11 -26.42658 29.25142 22088 ft 369 kts 300°
2026-05-07 19:11 -26.41250 29.22748 21668 ft 368 kts 300°
2026-05-07 19:11 -26.39848 29.20364 21241 ft 366 kts 300°
2026-05-07 19:11 -26.38451 29.17989 20826 ft 365 kts 300°
2026-05-07 19:12 -26.37060 29.15625 20421 ft 364 kts 300°
2026-05-07 19:12 -26.35672 29.13268 20003 ft 362 kts 300°
2026-05-07 19:12 -26.34290 29.10924 19595 ft 361 kts 300°
2026-05-07 19:12 -26.32911 29.08583 19174 ft 360 kts 300°
2026-05-07 19:13 -26.31536 29.06252 18767 ft 360 kts 300°
2026-05-07 19:13 -26.30159 29.03919 18325 ft 359 kts 300°
2026-05-07 19:13 -26.28788 29.01598 17881 ft 357 kts 300°
2026-05-07 19:13 -26.27427 28.99295 17462 ft 355 kts 300°
2026-05-07 19:14 -26.26071 28.97003 17047 ft 353 kts 300°
2026-05-07 19:14 -26.24722 28.94724 16644 ft 351 kts 300°
2026-05-07 19:14 -26.23377 28.92451 16233 ft 350 kts 300°
2026-05-07 19:14 -26.22039 28.90191 15836 ft 348 kts 300°
2026-05-07 19:15 -26.20708 28.87943 15441 ft 346 kts 300°
2026-05-07 19:15 -26.19381 28.85704 15048 ft 345 kts 300°
2026-05-07 19:15 -26.18059 28.83474 14638 ft 344 kts 300°
2026-05-07 19:15 -26.16740 28.81249 14242 ft 343 kts 300°
2026-05-07 19:16 -26.15426 28.79036 13820 ft 344 kts 301°
2026-05-07 19:16 -26.13784 28.76989 13423 ft 363 kts 318°
2026-05-07 19:16 -26.11592 28.75695 13258 ft 362 kts 336°
2026-05-07 19:16 -26.09080 28.75282 12715 ft 372 kts 357°
2026-05-07 19:17 -26.06502 28.75717 12220 ft 375 kts
2026-05-07 19:17 -26.03964 28.76372 11723 ft 373 kts
2026-05-07 19:17 -26.01441 28.77037 11245 ft 371 kts
2026-05-07 19:17 -25.98942 28.77176 10991 ft 352 kts 347°
2026-05-07 19:18 -25.96703 28.76329 10789 ft 331 kts 324°
2026-05-07 19:18 -25.95054 28.74687 10608 ft 311 kts 301°
2026-05-07 19:18 -25.94180 28.72581 10454 ft 293 kts 283°
2026-05-07 19:18 -25.93675 28.70421 10294 ft 283 kts 280°
2026-05-07 19:19 -25.93245 28.68325 10132 ft 274 kts 279°
2026-05-07 19:19 -25.92832 28.66269 9829 ft 270 kts 279°
2026-05-07 19:19 -25.92419 28.64235 9570 ft 270 kts 279°
2026-05-07 19:19 -25.92002 28.62198 9362 ft 271 kts 279°
2026-05-07 19:20 -25.91583 28.60156 9161 ft 270 kts 279°
2026-05-07 19:20 -25.91163 28.58116 9008 ft 271 kts 280°
2026-05-07 19:20 -25.90748 28.56074 8881 ft 271 kts 279°
2026-05-07 19:20 -25.90321 28.53976 8749 ft 270 kts 279°
2026-05-07 19:21 -25.89905 28.51936 8620 ft 270 kts 279°
2026-05-07 19:21 -25.89494 28.49923 8496 ft 270 kts 279°
2026-05-07 19:21 -25.89078 28.47885 8376 ft 269 kts 279°
2026-05-07 19:21 -25.88664 28.45862 8245 ft 265 kts 279°
2026-05-07 19:22 -25.88368 28.43886 8086 ft 253 kts 264°
2026-05-07 19:22 -25.88846 28.42092 8016 ft 236 kts 234°
2026-05-07 19:22 -25.89921 28.40780 8022 ft 228 kts 222°
2026-05-07 19:22 -25.91125 28.39622 8018 ft 229 kts 220°
2026-05-07 19:23 -25.92355 28.38493 8013 ft 229 kts 220°
2026-05-07 19:23 -25.93588 28.37371 8016 ft 229 kts 220°
2026-05-07 19:23 -25.94825 28.36246 8011 ft 229 kts 220°
2026-05-07 19:23 -25.96025 28.35157 7995 ft 216 kts 220°
2026-05-07 19:24 -25.97152 28.34138 8030 ft 201 kts 219°
2026-05-07 19:24 -25.98189 28.33191 8020 ft 186 kts 219°
2026-05-07 19:24 -25.99167 28.32299 8012 ft 183 kts 220°
2026-05-07 19:24 -26.00154 28.31402 8016 ft 183 kts 219°
2026-05-07 19:25 -26.01131 28.30515 7965 ft 175 kts 219°
2026-05-07 19:25 -26.02050 28.29702 7854 ft 163 kts 215°
2026-05-07 19:25 -26.03013 28.29093 7669 ft 158 kts 204°
2026-05-07 19:25 -26.04054 28.28665 7499 ft 161 kts 199°
2026-05-07 19:26 -26.05141 28.28326 7388 ft 164 kts 197°
2026-05-07 19:26 -26.06247 28.28009 7191 ft 164 kts 197°
2026-05-07 19:26 -26.07346 28.27678 6952 ft 163 kts 198°
2026-05-07 19:26 -26.08433 28.27310 6692 ft 163 kts 198°
2026-05-07 19:27 -26.09521 28.26972 6452 ft 162 kts 197°
2026-05-07 19:27 -26.10606 28.26640 6143 ft 161 kts 196°
2026-05-07 19:27 -26.11678 28.26301 5901 ft 159 kts 195°
2026-05-07 19:27 -26.12729 28.25976 5706 ft 159 kts 195°
2026-05-07 19:28 -26.13788 28.25646 5525 ft 156 kts 196°
2026-05-07 19:28 -26.14873 28.25306 5842 ft 169 kts 195°
2026-05-07 19:28 -26.16018 28.24966 6851 ft 172 kts 197°
2026-05-07 19:28 -26.17206 28.24579 7518 ft 185 kts 198°
2026-05-07 19:29 -26.18509 28.24145 7911 ft 209 kts 196°
2026-05-07 19:29 -26.20026 28.24131 7969 ft 229 kts 168°
2026-05-07 19:29 -26.21447 28.24999 7941 ft 240 kts 140°
2026-05-07 19:29 -26.22386 28.26569 7969 ft 252 kts 110°
2026-05-07 19:30 -26.22504 28.28533 7988 ft 261 kts 81°
2026-05-07 19:30 -26.21983 28.30476 8030 ft 262 kts 71°
2026-05-07 19:30 -26.21317 28.32370 8027 ft 262 kts 70°
2026-05-07 19:30 -26.20621 28.34252 8023 ft 262 kts 66°
2026-05-07 19:31 -26.19544 28.35885 8012 ft 265 kts 37°
2026-05-07 19:31 -26.17905 28.36796 8029 ft 264 kts 15°
2026-05-07 19:31 -26.16157 28.37310 8030 ft 262 kts 10°
2026-05-07 19:31 -26.14384 28.37753 8021 ft 261 kts
2026-05-07 19:32 -26.12611 28.38183 8022 ft 261 kts
2026-05-07 19:32 -26.10836 28.38611 7995 ft 260 kts
2026-05-07 19:32 -26.09063 28.39037 7997 ft 261 kts
2026-05-07 19:32 -26.07292 28.39460 7990 ft 260 kts
2026-05-07 19:33 -26.05519 28.39886 7999 ft 260 kts
2026-05-07 19:33 -26.03750 28.40315 7992 ft 260 kts
2026-05-07 19:33 -26.01984 28.40744 7996 ft 260 kts
2026-05-07 19:33 -26.00203 28.40936 7983 ft 255 kts 346°
2026-05-07 19:34 -25.98606 28.40203 8007 ft 246 kts 315°
2026-05-07 19:34 -25.97613 28.38734 8014 ft 235 kts 288°
2026-05-07 19:34 -25.97096 28.37017 8021 ft 233 kts 281°
2026-05-07 19:34 -25.96688 28.35275 8014 ft 232 kts 277°
2026-05-07 19:35 -25.96717 28.33531 7987 ft 225 kts 248°
2026-05-07 19:35 -25.97556 28.32095 8022 ft 223 kts 225°
2026-05-07 19:35 -25.98695 28.30937 8007 ft 218 kts 217°
2026-05-07 19:35 -25.99942 28.30101 8021 ft 205 kts 206°
2026-05-07 19:36 -26.01218 28.29560 8029 ft 189 kts 200°
2026-05-07 19:36 -26.02459 28.29152 7808 ft 183 kts 198°
2026-05-07 19:36 -26.03675 28.28782 7572 ft 178 kts 197°
2026-05-07 19:36 -26.04837 28.28429 7333 ft 167 kts 198°
2026-05-07 19:37 -26.05943 28.28087 7117 ft 164 kts 198°
2026-05-07 19:37 -26.07037 28.27748 6949 ft 163 kts 198°
2026-05-07 19:37 -26.08125 28.27407 6754 ft 162 kts 197°
2026-05-07 19:37 -26.09210 28.27062 6548 ft 162 kts 197°
2026-05-07 19:38 -26.10293 28.26733 6327 ft 161 kts 196°
2026-05-07 19:38 -26.11371 28.26399 6034 ft 160 kts 195°
2026-05-07 19:38 -26.12436 28.26064 5798 ft 159 kts 195°
2026-05-07 19:38 -26.13493 28.25737 5567 ft 157 kts 195°
2026-05-07 19:39 -26.14471 28.25434 5515 ft 118 kts 195°
2026-05-07 19:39 -26.15098 28.25240 5517 ft 67 kts 195°
2026-05-07 19:39 -26.15380 28.25152 5523 ft 28 kts 195°
2026-05-07 19:39 -26.15501 28.25115 5524 ft 26 kts 195°
2026-05-07 19:40 -26.15596 28.25063 5525 ft 9 kts 247°
2026-05-07 19:40 -26.15588 28.24984 5523 ft 12 kts 283°
2026-05-07 19:40 -26.15583 28.24962 5523 ft 3 kts 285°
2026-05-07 19:40 -26.15569 28.24922 5522 ft 7 kts 308°
2026-05-07 19:41 -26.15515 28.24906 5522 ft 9 kts
2026-05-07 19:41 -26.15442 28.24926 5522 ft 13 kts 15°
2026-05-07 19:41 -26.15335 28.24960 5522 ft 20 kts 15°
2026-05-07 19:41 -26.15186 28.25006 5524 ft 23 kts 15°
2026-05-07 19:42 -26.15026 28.25055 5522 ft 25 kts 15°
2026-05-07 19:42 -26.14849 28.25110 5519 ft 27 kts 16°
2026-05-07 19:42 -26.14668 28.25166 5518 ft 27 kts 15°
2026-05-07 19:42 -26.14546 28.25204 5518 ft 11 kts 15°
2026-05-07 19:43 -26.14511 28.25214 5518 ft 6 kts
2026-05-07 19:43 -26.14469 28.25202 5519 ft 7 kts 328°
2026-05-07 19:43 -26.14419 28.25152 5521 ft 12 kts 316°
2026-05-07 19:43 -26.14345 28.25072 5532 ft 17 kts 316°
2026-05-07 19:44 -26.14254 28.24973 5546 ft 23 kts 315°
2026-05-07 19:44 -26.14134 28.24843 5546 ft 24 kts 315°
2026-05-07 19:44 -26.14010 28.24707 5545 ft 25 kts 316°
2026-05-07 19:44 -26.13881 28.24569 5543 ft 26 kts 316°
2026-05-07 19:45 -26.13757 28.24434 5551 ft 24 kts 315°
2026-05-07 19:45 -26.13636 28.24301 5551 ft 25 kts 316°
2026-05-07 19:45 -26.13510 28.24166 5551 ft 25 kts 316°
2026-05-07 19:45 -26.13394 28.24040 5560 ft 22 kts 316°
2026-05-07 19:46 -26.13279 28.23915 5559 ft 21 kts 316°
2026-05-07 19:46 -26.13221 28.23852 5558 ft 14 kts 316°
2026-05-07 19:46 -26.13151 28.23776 5556 ft 10 kts 314°
2026-05-07 19:46 -26.13131 28.23752 5557 ft 3 kts 314°
2026-05-07 19:47 -26.13106 28.23732 5556 ft 5 kts 336°
2026-05-07 19:47 -26.13061 28.23726 5554 ft 8 kts
2026-05-07 19:47 -26.13000 28.23741 5555 ft 10 kts 15°
2026-05-07 19:47 -26.12923 28.23766 5554 ft 12 kts 16°
2026-05-07 19:48 -26.12872 28.23779 5555 ft 7 kts
2026-05-07 19:48 -26.12839 28.23757 5558 ft 5 kts 299°
2026-05-07 19:48 -26.12831 28.23716 5558 ft 6 kts 276°
2026-05-07 19:48 -26.12825 28.23659 5556 ft 9 kts 276°
2026-05-07 19:49 -26.12817 28.23583 5556 ft 11 kts 276°
2026-05-07 19:49 -26.12814 28.23527 5555 ft 6 kts 262°
2026-05-07 19:49 -26.12847 28.23498 5559 ft 8 kts 192°
2026-05-07 19:49 -26.12879 28.23493 5558 ft 0 kts 187°
2026-05-07 19:50 -26.12886 28.23492 5558 ft 2 kts 187°
2026-05-07 19:50 -26.12902 28.23490 5557 ft 1 kts 186°
2026-05-07 19:50 -26.12903 28.23490 5557 ft 0 kts 186°